FW4804 Weather Reports


time (UTC)temp
F
wind
direction
speed
knots
gust
knots
rain 1hr
in
rain 24hr
in
rain mn
in
humidity
%
barometer
mb
20260504050006 32 314 0.0 0.9 0.00 0.20 0.00 98 1016.9
20260504045505 32 314 0.0 0.9 0.00 0.20 0.00 98 1017.1
20260504045020 31 0 0.0 0.0 0.00 0.20 0.00 97 1017.1
20260504044505 31 0 0.0 0.0 0.00 0.20 0.00 97 1017.1
20260504044005 30 0 0.0 0.0 0.00 0.20 0.00 97 1017.1
20260504043507 30 0 0.0 0.0 0.00 0.20 0.00 97 1017.0
20260504043005 30 0 0.0 0.0 0.00 0.20 0.00 97 1017.1
20260504042005 29 0 0.0 0.0 0.00 0.20 0.00 96 1017.0
20260504041505 29 0 0.0 0.0 0.00 0.20 0.00 96 1016.9
20260504041005 29 0 0.0 0.0 0.00 0.20 0.00 96 1017.1
20260504040505 29 0 0.0 0.0 0.00 0.20 0.00 96 1016.8
20260504040005 29 0 0.0 0.0 0.00 0.20 0.00 96 1017.0
20260504035506 29 0 0.0 0.0 0.00 0.20 0.00 96 1016.8
20260504035005 29 0 0.0 0.0 0.00 0.20 0.00 96 1016.7
20260504034006 29 0 0.0 0.0 0.00 0.20 0.00 96 1016.7
20260504033505 29 0 0.0 0.0 0.00 0.20 0.00 96 1016.7
20260504033005 29 0 0.0 0.0 0.00 0.20 0.00 96 1016.8
20260504032505 29 0 0.0 0.0 0.00 0.20 0.00 96 1016.6
20260504032005 29 0 0.0 0.0 0.00 0.20 0.00 97 1016.6
20260504031506 29 0 0.0 0.0 0.00 0.20 0.00 96 1016.7
20260504030505 30 0 0.0 0.0 0.00 0.20 0.00 97 1016.7
20260504025506 30 0 0.0 0.0 0.00 0.20 0.00 97 1016.9
20260504025006 30 0 0.0 0.0 0.00 0.20 0.00 97 1016.7
20260504024505 30 135 0.0 0.9 0.00 0.20 0.00 97 1016.7
20260504023505 30 337 0.0 0.9 0.00 0.20 0.00 97 1016.7
20260504022505 30 338 0.0 0.9 0.00 0.20 0.00 97 1017.0
20260504022005 30 0 0.0 0.0 0.00 0.20 0.00 97 1017.0
20260504021505 30 0 0.0 0.0 0.00 0.20 0.00 97 1016.9
20260504021006 30 0 0.0 0.0 0.00 0.20 0.00 97 1017.0
20260504020506 30 0 0.0 0.0 0.00 0.20 0.00 97 1017.1
20260504015506 30 0 0.0 0.0 0.00 0.20 0.00 97 1016.9
20260504015005 30 0 0.0 0.0 0.00 0.20 0.00 97 1017.0
20260504014505 30 0 0.0 0.0 0.00 0.20 0.00 97 1017.1
20260504014005 29 0 0.0 0.0 0.00 0.20 0.00 96 1017.0
20260504013505 29 0 0.0 0.0 0.00 0.20 0.00 96 1017.2
20260504013005 29 0 0.0 0.0 0.00 0.20 0.00 96 1017.2
20260504012505 29 0 0.0 0.0 0.00 0.20 0.00 96 1017.2
20260504012005 29 0 0.0 0.0 0.00 0.20 0.00 96 1017.1
20260504011505 29 0 0.0 0.0 0.00 0.20 0.00 96 1017.2
20260504011012 29 0 0.0 0.0 0.00 0.20 0.00 96 1016.8
20260504010505 30 0 0.0 0.0 0.00 0.20 0.00 96 1016.9
20260504010005 29 0 0.0 0.0 0.00 0.20 0.00 96 1017.0
20260504005505 29 0 0.0 0.0 0.00 0.20 0.00 96 1017.0
20260504005006 29 0 0.0 0.0 0.00 0.20 0.00 96 1016.9
20260504004505 29 0 0.0 0.0 0.00 0.20 0.00 96 1016.9
20260504004008 29 0 0.0 0.0 0.00 0.20 0.00 96 1017.0
20260504003505 29 0 0.0 0.0 0.00 0.20 0.00 96 1017.1
20260504002505 29 0 0.0 0.0 0.00 0.20 0.00 96 1017.1
20260504002005 30 0 0.0 0.0 0.00 0.20 0.00 96 1017.0
20260504001505 30 0 0.0 0.0 0.00 0.20 0.00 96 1017.0
20260504001005 30 0 0.0 0.0 0.00 0.20 0.00 96 1017.2
20260504000505 30 0 0.0 0.0 0.00 0.20 0.00 96 1017.0
20260504000005 30 0 0.0 0.0 0.00 0.20 0.00 96 1017.0
20260503235005 29 0 0.0 0.0 0.00 0.20 0.00 95 1016.9
20260503234505 29 0 0.0 0.0 0.00 0.20 0.00 95 1016.8
20260503234006 30 0 0.0 0.0 0.00 0.20 0.00 95 1017.0
20260503233505 30 0 0.0 0.0 0.00 0.20 0.00 95 1017.0
20260503232506 30 0 0.0 0.0 0.00 0.20 0.00 95 1017.1
20260503232005 30 0 0.0 0.0 0.00 0.20 0.00 95 1017.2
20260503231505 30 0 0.0 0.0 0.00 0.20 0.00 95 1017.3
20260503231005 31 0 0.0 0.0 0.00 0.20 0.00 95 1017.3
20260503230506 31 0 0.0 0.0 0.00 0.20 0.00 95 1017.1
20260503230006 31 0 0.0 0.0 0.00 0.20 0.00 95 1017.2
20260503225505 31 0 0.0 0.0 0.00 0.20 0.00 95 1017.1
20260503225005 31 0 0.0 0.0 0.00 0.20 0.00 94 1017.3
20260503224505 31 0 0.0 0.0 0.00 0.20 0.00 94 1017.2
20260503222505 31 0 0.0 0.0 0.00 0.20 0.00 94 1017.4
20260503222005 31 0 0.0 0.0 0.00 0.20 0.00 94 1017.4
20260503221506 31 0 0.0 0.0 0.00 0.20 0.00 94 1017.5
20260503221006 31 0 0.0 0.0 0.00 0.20 0.00 94 1017.3
20260503220506 31 0 0.0 0.0 0.00 0.20 0.00 94 1017.3
20260503215005 31 0 0.0 0.0 0.00 0.20 0.00 93 1017.3
20260503214005 31 0 0.0 0.0 0.00 0.20 0.00 93 1017.2
20260503213505 31 0 0.0 0.0 0.00 0.20 0.00 93 1017.4
20260503213005 31 0 0.0 0.0 0.00 0.20 0.00 93 1017.2
20260503212506 32 0 0.0 0.0 0.00 0.20 0.00 93 1017.3
20260503212005 32 0 0.0 0.0 0.00 0.20 0.00 92 1017.2
20260503211505 32 0 0.0 0.0 0.00 0.20 0.00 92 1017.2
20260503211005 32 0 0.0 0.0 0.00 0.20 0.00 92 1017.3
20260503210505 33 0 0.0 0.0 0.00 0.20 0.00 92 1017.1
20260503210009 33 0 0.0 0.0 0.00 0.20 0.00 92 1017.1
20260503205505 33 0 0.0 0.0 0.00 0.20 0.20 92 1017.1
20260503205005 33 0 0.0 0.0 0.00 0.20 0.20 92 1017.1
20260503204505 33 0 0.0 0.0 0.00 0.20 0.20 92 1017.0
20260503203505 33 0 0.0 0.0 0.00 0.20 0.20 92 1017.3
20260503203005 34 0 0.0 0.0 0.00 0.20 0.20 92 1017.4
20260503202507 34 0 0.0 0.0 0.00 0.20 0.20 92 1017.3
20260503202006 34 0 0.0 0.0 0.00 0.20 0.20 91 1017.4
20260503201506 34 0 0.0 0.0 0.00 0.20 0.20 91 1017.3
20260503201005 35 0 0.0 0.0 0.00 0.20 0.20 91 1017.4
20260503195506 35 0 0.0 0.0 0.00 0.20 0.20 91 1017.3
20260503195005 35 0 0.0 0.0 0.00 0.20 0.20 91 1017.4
20260503194505 35 0 0.0 0.0 0.00 0.20 0.20 91 1017.3
20260503194005 35 0 0.0 0.0 0.00 0.20 0.20 91 1017.3
20260503193506 35 0 0.0 0.0 0.00 0.20 0.20 91 1017.4
20260503193006 35 0 0.0 0.0 0.00 0.20 0.20 90 1017.3
20260503192505 35 0 0.0 0.0 0.00 0.20 0.20 90 1017.2
20260503192005 35 0 0.0 0.0 0.00 0.20 0.20 89 1017.1
20260503190505 35 0 0.0 0.0 0.00 0.20 0.20 88 1017.1
20260503190005 36 0 0.0 0.0 0.00 0.20 0.20 88 1016.9
20260503185505 36 0 0.0 0.0 0.00 0.20 0.20 87 1016.8
20260503184005 37 0 0.0 0.0 0.00 0.20 0.20 86 1016.6
20260503183505 37 0 0.0 0.0 0.00 0.20 0.20 85 1016.8
20260503183005 37 0 0.0 0.0 0.00 0.20 0.20 84 1016.7
20260503182505 38 0 0.0 0.0 0.00 0.20 0.20 83 1016.6
20260503182008 38 0 0.0 0.0 0.00 0.20 0.20 83 1016.3
20260503181506 39 0 0.0 0.0 0.00 0.20 0.20 83 1016.3
20260503181005 39 181 0.0 0.9 0.00 0.20 0.20 83 1016.2
20260503180506 39 252 0.9 3.5 0.00 0.20 0.20 83 1016.3
20260503180005 40 261 0.9 3.5 0.00 0.20 0.20 84 1016.2
20260503175505 39 0 0.0 0.0 0.00 0.20 0.20 85 1016.2
20260503175005 39 0 0.0 0.0 0.00 0.20 0.20 85 1016.1
20260503174505 38 0 0.0 0.0 0.00 0.20 0.20 84 1016.2
20260503174010 39 0 0.0 0.0 0.00 0.20 0.20 83 1016.2
20260503173508 39 0 0.0 0.0 0.00 0.20 0.20 83 1016.4
20260503173005 40 0 0.0 0.0 0.00 0.20 0.20 82 1016.2
20260503172505 40 0 0.0 0.0 0.00 0.20 0.20 81 1016.1
20260503171505 41 0 0.0 0.0 0.00 0.20 0.20 77 1016.1
20260503171006 42 0 0.0 0.0 0.00 0.20 0.20 75 1015.9
20260503170507 43 0 0.0 0.0 0.00 0.20 0.20 73 1015.9
20260503151005 51 328 4.3 8.7 0.00 0.20 0.20 55 1014.9
20260503150505 50 162 5.2 8.7 0.00 0.20 0.20 56 1014.8
20260503131005 44 340 0.0 1.7 0.00 0.20 0.20 75 1014.9
20260503130505 44 314 0.0 0.9 0.00 0.20 0.20 77 1015.0
20260503110505 38 190 3.5 6.1 0.12 0.20 0.19 69 1015.8
20260503090505 42 225 0.0 1.7 0.06 0.08 0.07 89 1014.3
20260503081505 46 259 6.1 7.0 0.00 0.02 0.01 64 1013.5
20260503072505 52 116 2.6 5.2 0.01 0.02 0.01 53 1013.1
20260503072005 51 134 2.6 5.2 0.01 0.02 0.01 51 1013.1
20260503071506 51 151 2.6 5.2 0.01 0.04 0.01 52 1013.0
20260503070506 52 108 0.9 6.1 0.01 0.04 0.01 56 1013.0
20260503055005 38 242 0.0 1.7 0.00 0.05 0.00 100 1012.7
20260503054505 38 254 0.9 1.7 0.00 0.06 0.00 100 1012.8
20260503054006 36 279 0.9 2.6 0.00 0.06 0.00 100 1012.8
20260503053505 36 255 0.9 2.6 0.00 0.06 0.00 100 1013.1
20260503053005 35 209 0.9 2.6 0.00 0.06 0.00 100 1013.2
20260503052507 35 286 0.9 2.6 0.00 0.07 0.00 100 1013.0
20260503052005 35 299 0.9 2.6 0.00 0.07 0.00 100 1013.2